20050712,000017,1135923,33.587916,-120.764175,17.4,14.710,33.284,40.757,801.64,0.0,2.294,14.349,14.313, NaN,24.712,   NaN,14.34,1012.68,100.00,14.65,4.9,7.3,10.9,11.1,330.5,332.9,10.5,10.7,NaN, NaN,14.7,335.0,307.6,1121126417,1121126417,1,0.3,000017,000017,324.5,33.587796,-120.764105,0.75,NaN,NaN,14.714, NaN,NaN,NaN, NaN, NaN
20050712,000047,1135952,33.587995,-120.764220,16.6,14.707,33.277,40.746,809.20,0.0,2.256,14.347,14.313, NaN,24.707,   NaN,14.34,1012.96,100.00,14.64,5.4,9.3,10.9,11.0,329.4,333.5,10.5,10.6,NaN, NaN,13.4,326.4,329.0,1121126448,1121126447,1,0.6,000047,000047,321.5,33.587876,-120.764146,0.58,NaN,NaN,14.711, NaN,NaN,NaN, NaN, NaN
20050712,000117,1135983,33.588056,-120.764291,17.0,14.711,33.276,40.750,806.00,0.0,2.464,14.347,14.311, NaN,24.706,   NaN,14.34,1012.84,100.00,14.64,7.6,10.8,10.4,10.6,329.8,333.0,10.1,10.3,NaN, NaN,14.1,41.3,337.5,1121126478,1121126477,1,1.3,000077,000077,321.3,33.587935,-120.764213,0.67,NaN,NaN,14.715, NaN,NaN,NaN, NaN, NaN
20050712,000147,1136013,33.588111,-120.764348,17.2,14.708,33.279,40.750,798.08,0.0,2.501,14.345,14.310, NaN,24.708,   NaN,14.35,1012.85,100.00,14.65,10.0,13.6,10.3,10.3,332.5,336.2,10.0,10.0,NaN, NaN,13.5,223.0,278.3,1121126508,1121126507,1,0.8,000107,000107,324.4,33.587991,-120.764278,0.69,NaN,NaN,14.712, NaN,NaN,NaN, NaN, NaN
20050712,000217,1136043,33.588163,-120.764405,17.0,14.705,33.284,40.753,807.03,0.0,2.577,14.344,14.310, NaN,24.713,   NaN,14.34,1012.89,100.00,14.65,8.0,12.5,10.5,10.8,332.7,337.3,10.2,10.6,NaN, NaN,13.9,259.8,276.2,1121126538,1121126537,1,1.0,000137,000137,325.1,33.588038,-120.764328,0.63,NaN,NaN,14.709, NaN,NaN,NaN, NaN, NaN
20050712,000247,1136073,33.588225,-120.764438,17.1,14.703,33.277,40.743,862.82,0.0,2.558,14.343,14.303, NaN,24.708,   NaN,14.35,1012.70,100.00,14.65,4.8,9.2,10.3,10.5,329.6,334.1,10.0,10.3,NaN, NaN,14.1,341.5,350.6,1121126568,1121126567,1,0.6,000167,000167,324.6,33.588095,-120.764363,0.43,NaN,NaN,14.707, NaN,NaN,NaN, NaN, NaN
20050712,000317,1136102,33.588260,-120.764460,17.0,14.707,33.276,40.745,858.55,0.0,2.577,14.343,14.308, NaN,24.706,   NaN,14.35,1012.89,100.00,14.65,3.7,8.0,10.5,10.3,329.2,333.6,10.2,10.0,NaN, NaN,13.3,25.1,6.1,1121126598,1121126597,1,0.4,000197,000197,327.8,33.588126,-120.764391,0.22,NaN,NaN,14.711, NaN,NaN,NaN, NaN, NaN
20050712,000347,1136132,33.588295,-120.764463,17.2,14.716,33.295,40.774,870.43,0.0,2.520,14.344,14.310, NaN,24.719,   NaN,14.35,1012.84,100.00,14.65,5.4,5.9,9.9,9.9,332.9,333.6,9.7,9.7,NaN, NaN,13.9,234.7,351.1,1121126628,1121126627,1,0.5,000227,000227,329.7,33.588161,-120.764403,0.13,NaN,NaN,14.720, NaN,NaN,NaN, NaN, NaN
20050712,000418,1136164,33.588336,-120.764451,17.1,14.717,33.302,40.783,897.42,0.0,2.558,14.348,14.311, NaN,24.724,   NaN,14.36,1012.82,100.00,14.65,6.0,3.2,9.7,9.6,334.8,332.2,9.7,9.6,NaN, NaN,14.0,67.1,17.7,1121126658,1121126658,1,0.4,000257,000258,326.9,33.588203,-120.764385,0.21,NaN,NaN,14.721, NaN,NaN,NaN, NaN, NaN
20050712,000447,1136193,33.588363,-120.764436,17.3,14.715,33.301,40.781,873.41,0.0,2.671,14.349,14.313, NaN,24.724,   NaN,14.36,1012.83,100.00,14.65,6.6,7.3,9.2,9.3,330.9,331.7,9.2,9.2,NaN, NaN,13.6,8.5,8.3,1121126687,1121126687,1,0.2,000287,000287,318.4,33.588236,-120.764350,0.05,NaN,NaN,14.719, NaN,NaN,NaN, NaN, NaN
20050712,000517,1136223,33.588358,-120.764441,17.1,14.714,33.300,40.779,836.47,0.0,2.766,14.350,14.315, NaN,24.723,   NaN,14.36,1012.72,100.00,14.65,17.6,18.1,9.9,10.4,333.3,333.8,9.8,10.2,NaN, NaN,13.9,30.1,257.0,1121126718,1121126717,1,0.3,000317,000317,303.9,33.588250,-120.764326,0.04,NaN,NaN,14.718, NaN,NaN,NaN, NaN, NaN
20050712,000547,1136253,33.588298,-120.764465,17.1,14.712,33.303,40.780,851.10,0.0,2.709,14.349,14.313, NaN,24.726,   NaN,14.32,1012.57,100.00,14.63,35.0,33.8,11.4,11.3,337.1,335.9,11.5,11.4,NaN, NaN,14.2,223.6,200.5,1121126748,1121126747,1,0.7,000347,000347,285.1,33.588225,-120.764308,0.15,NaN,NaN,14.716, NaN,NaN,NaN, NaN, NaN
20050712,000617,1136282,33.588196,-120.764510,17.1,14.711,33.302,40.778,819.84,0.0,2.690,14.349,14.312, NaN,24.725,   NaN,14.32,1012.59,100.00,14.62,49.9,52.7,10.3,8.6,336.5,339.7,10.6,8.9,NaN, NaN,13.0,213.9,210.6,1121126778,1121126777,1,1.6,000377,000377,276.1,33.588138,-120.764350,0.22,NaN,NaN,14.715, NaN,NaN,NaN, NaN, NaN
20050712,000648,1136314,33.588091,-120.764593,17.2,14.712,33.298,40.774,873.92,0.0,2.747,14.349,14.313, NaN,24.722,   NaN,14.33,1012.61,100.00,14.63,58.5,61.2,9.2,6.2,338.2,341.9,9.5,6.5,NaN, NaN,13.8,347.3,242.9,1121126808,1121126807,1,0.8,000407,000407,280.1,33.588021,-120.764435,0.53,NaN,NaN,14.716, NaN,NaN,NaN, NaN, NaN
20050712,000717,1136343,33.588016,-120.764696,17.2,14.714,33.300,40.779,857.24,0.0,2.803,14.349,14.313, NaN,24.723,   NaN,14.35,1012.70,100.00,14.64,52.8,54.4,8.6,7.1,337.8,339.8,8.9,7.4,NaN, NaN,13.4,234.3,286.9,1121126838,1121126837,1,0.9,000437,000437,289.3,33.587908,-120.764555,0.48,NaN,NaN,14.718, NaN,NaN,NaN, NaN, NaN
20050712,000747,1136373,33.587956,-120.764806,16.9,14.712,33.300,40.776,851.49,0.0,2.652,14.347,14.313, NaN,24.724,   NaN,14.35,1012.80,100.00,14.64,40.3,43.2,8.8,8.9,333.4,336.3,8.9,9.0,NaN, NaN,13.7,250.9,255.4,1121126868,1121126867,1,0.6,000467,000467,294.8,33.587850,-120.764671,0.52,NaN,NaN,14.716, NaN,NaN,NaN, NaN, NaN
20050712,000817,1136403,33.587908,-120.764870,17.1,14.710,33.302,40.778,859.93,0.0,2.860,14.348,14.312, NaN,24.726,   NaN,14.34,1012.67,100.00,14.65,37.9,36.9,9.0,9.2,336.3,335.3,9.0,9.3,NaN, NaN,13.6,31.0,33.1,1121126898,1121126897,1,0.7,000497,000497,298.5,33.587805,-120.764753,0.36,NaN,NaN,14.714, NaN,NaN,NaN, NaN, NaN
20050712,000847,1136432,33.587836,-120.764961,17.1,14.715,33.297,40.775,863.49,0.0,2.652,14.349,14.312, NaN,24.721,   NaN,14.35,1012.76,100.00,14.64,36.2,33.4,9.2,9.4,337.6,334.8,9.3,9.5,NaN, NaN,13.9,229.4,217.4,1121126928,1121126927,1,1.4,000527,000527,300.5,33.587730,-120.764830,0.27,NaN,NaN,14.719, NaN,NaN,NaN, NaN, NaN
20050712,000917,1136462,33.587790,-120.765026,17.2,14.720,33.295,40.779,880.93,0.0,2.313,14.352,14.317, NaN,24.718,   NaN,14.36,1012.63,100.00,14.65,35.1,32.6,9.5,9.8,337.4,334.9,9.6,9.8,NaN, NaN,13.9,227.3,227.5,1121126958,1121126957,1,1.5,000557,000557,302.3,33.587686,-120.764908,0.31,NaN,NaN,14.724, NaN,NaN,NaN, NaN, NaN
20050712,000947,1136493,33.587791,-120.765153,17.1,14.723,33.298,40.785,836.91,0.0,2.218,14.354,14.318, NaN,24.720,   NaN,14.34,1012.67,100.00,14.65,29.5,29.4,10.7,11.4,335.8,335.7,10.7,11.4,NaN, NaN,13.3,237.1,278.2,1121126988,1121126987,1,1.4,000587,000587,313.5,33.587665,-120.765056,0.63,NaN,NaN,14.727, NaN,NaN,NaN, NaN, NaN
20050712,001017,1136523,33.587861,-120.765261,17.0,14.724,33.301,40.789,814.39,0.0,2.180,14.354,14.318, NaN,24.722,   NaN,14.35,1012.87,100.00,14.65,14.1,15.6,11.4,12.0,333.3,334.7,11.1,11.7,NaN, NaN,14.1,16.6,7.6,1121127017,1121127017,1,1.2,000617,000617,334.0,33.587721,-120.765216,1.06,NaN,NaN,14.728, NaN,NaN,NaN, NaN, NaN
20050712,001047,1136553,33.587973,-120.765296,17.3,14.721,33.305,40.790,800.49,0.0,2.180,14.354,14.317, NaN,24.725,   NaN,14.36,1012.66,100.00,14.65,355.1,357.9,10.7,10.6,330.4,333.4,10.3,10.2,NaN, NaN,13.8,40.4,18.7,1121127048,1121127048,1,0.7,000647,000648,346.6,33.587828,-120.765283,0.72,NaN,NaN,14.725, NaN,NaN,NaN, NaN, NaN
20050712,001117,1136583,33.588046,-120.765261,17.0,14.725,33.299,40.788,819.17,0.0,2.237,14.362,14.323, NaN,24.720,   NaN,14.37,1012.73,100.00,14.65,342.4,345.4,9.7,9.3,328.7,331.7,9.4,9.0,NaN, NaN,14.6,76.7,355.1,1121127078,1121127077,1,0.6,000677,000677,354.6,33.587903,-120.765261,0.49,NaN,NaN,14.729, NaN,NaN,NaN, NaN, NaN
20050712,001147,1136612,33.588101,-120.765143,16.9,14.734,33.295,40.792,833.37,0.0,2.275,14.364,14.327, NaN,24.715,   NaN,14.36,1012.82,100.00,14.66,334.2,336.1,9.5,9.2,327.3,329.0,9.5,9.2,NaN, NaN,14.6,81.7,55.0,1121127108,1121127107,1,0.7,000707,000707,359.6,33.587966,-120.765160,0.15,NaN,NaN,14.738, NaN,NaN,NaN, NaN, NaN
20050712,001217,1136642,33.588156,-120.765000,17.0,14.738,33.297,40.797,836.91,0.0,2.275,14.368,14.331, NaN,24.716,   NaN,14.36,1012.76,100.00,14.65,326.6,328.9,9.6,9.7,324.1,326.3,9.7,9.8,NaN, NaN,14.3,272.2,301.3,1121127138,1121127137,1,1.0,000737,000737,2.1,33.588033,-120.765026,0.31,NaN,NaN,14.742, NaN,NaN,NaN, NaN, NaN
20050712,001247,1136673,33.588250,-120.764855,17.2,14.738,33.307,40.809,853.01,0.0,2.350,14.369,14.331, NaN,24.724,   NaN,14.35,1012.66,100.00,14.65,324.5,325.3,9.0,9.7,322.5,323.4,9.1,9.8,NaN, NaN,14.5,53.3,17.1,1121127168,1121127167,1,0.8,000767,000767,358.5,33.588118,-120.764870,0.53,NaN,NaN,14.742, NaN,NaN,NaN, NaN, NaN
20050712,001318,1136703,33.588358,-120.764718,17.1,14.736,33.300,40.799,823.83,0.0,2.294,14.367,14.331, NaN,24.718,   NaN,14.36,1012.78,100.00,14.66,327.9,328.7,9.1,9.6,320.7,321.5,9.2,9.7,NaN, NaN,14.7,267.5,2.5,1121127198,1121127198,1,0.5,000797,000798,350.6,33.588220,-120.764713,0.48,NaN,NaN,14.740, NaN,NaN,NaN, NaN, NaN
20050712,001347,1136733,33.588460,-120.764601,17.4,14.733,33.304,40.800,808.48,0.0,2.369,14.365,14.328, NaN,24.722,   NaN,14.36,1012.66,100.00,14.67,340.1,342.4,10.8,10.4,326.5,328.7,10.7,10.3,NaN, NaN,14.3,299.6,8.6,1121127228,1121127227,1,0.5,000827,000827,341.1,33.588323,-120.764566,0.43,NaN,NaN,14.737, NaN,NaN,NaN, NaN, NaN
20050712,001417,1136763,33.588561,-120.764503,17.0,14.725,33.308,40.797,804.48,0.0,2.331,14.362,14.324, NaN,24.727,   NaN,14.37,1012.78,100.00,14.65,353.0,356.1,10.7,10.3,329.8,332.8,10.5,10.1,NaN, NaN,15.5,24.3,53.1,1121127258,1121127257,1,1.4,000857,000857,330.5,33.588430,-120.764450,0.59,NaN,NaN,14.729, NaN,NaN,NaN, NaN, NaN
20050712,001447,1136792,33.588631,-120.764501,16.8,14.719,33.303,40.786,797.51,0.0,2.275,14.362,14.324, NaN,24.724,   NaN,14.37,1012.75,100.00,14.67,2.2,5.9,10.2,10.2,330.0,333.7,10.0,10.0,NaN, NaN,15.1,272.9,284.3,1121127288,1121127287,1,0.3,000887,000887,324.7,33.588510,-120.764421,0.26,NaN,NaN,14.723, NaN,NaN,NaN, NaN, NaN
20050712,001517,1136822,33.588688,-120.764461,17.0,14.724,33.298,40.786,788.54,0.0,2.464,14.361,14.321, NaN,24.720,   NaN,14.38,1012.70,100.00,14.66,11.1,11.4,9.6,9.8,334.5,334.8,9.4,9.7,NaN, NaN,15.0,34.1,43.2,1121127318,1121127317,1,1.3,000917,000917,321.5,33.588570,-120.764385,0.04,NaN,NaN,14.728, NaN,NaN,NaN, NaN, NaN
20050712,001548,1136853,33.588713,-120.764490,17.0,14.725,33.296,40.785,795.69,0.0,2.445,14.359,14.320, NaN,24.718,   NaN,14.38,1012.71,100.00,14.65,13.8,14.3,9.0,9.5,335.2,335.8,8.9,9.4,NaN, NaN,14.3,23.1,349.0,1121127348,1121127348,1,0.3,000947,000948,324.1,33.588593,-120.764410,0.22,NaN,NaN,14.729, NaN,NaN,NaN, NaN, NaN
20050712,001617,1136883,33.588733,-120.764478,17.0,14.727,33.297,40.787,847.25,0.0,2.577,14.361,14.321, NaN,24.718,   NaN,14.38,1012.68,100.00,14.67,10.5,10.9,9.5,9.8,333.9,334.2,9.4,9.7,NaN, NaN,13.6,23.1,76.5,1121127377,1121127377,1,0.5,000977,000977,323.1,33.588606,-120.764405,-0.29,NaN,NaN,14.731, NaN,NaN,NaN, NaN, NaN
20050712,001647,1136913,33.588705,-120.764431,17.2,14.726,33.299,40.789,885.58,0.0,2.671,14.361,14.322, NaN,24.720,   NaN,14.37,1012.60,100.00,14.68,11.7,13.0,10.3,10.5,332.9,334.1,10.3,10.5,NaN, NaN,13.4,72.8,57.1,1121127408,1121127407,1,1.6,001007,001007,313.8,33.588585,-120.764345,-0.72,NaN,NaN,14.730, NaN,NaN,NaN, NaN, NaN
20050712,001717,1136942,33.588658,-120.764458,17.1,14.724,33.296,40.784,865.97,0.0,2.822,14.361,14.321, NaN,24.718,   NaN,14.37,1012.66,100.00,14.65,20.0,21.0,10.5,11.1,334.8,335.7,10.7,11.3,NaN, NaN,13.2,217.2,154.8,1121127438,1121127437,1,0.1,001037,001037,310.1,33.588535,-120.764346,-1.53,NaN,NaN,14.728, NaN,NaN,NaN, NaN, NaN
20050712,001747,1136972,33.588625,-120.764536,17.0,14.725,33.295,40.784,842.18,0.0,2.784,14.361,14.322, NaN,24.717,   NaN,14.37,1012.69,100.00,14.65,24.3,24.0,10.4,11.0,336.9,336.3,10.4,11.1,NaN, NaN,13.2,236.5,218.0,1121127468,1121127467,1,1.4,001067,001067,312.0,33.588503,-120.764426,0.27,NaN,NaN,14.729, NaN,NaN,NaN, NaN, NaN
20050712,001817,1137003,33.588653,-120.764631,17.2,14.724,33.297,40.785,813.80,0.0,2.784,14.361,14.321, NaN,24.719,   NaN,14.38,1012.57,100.00,14.67,24.0,22.9,10.2,10.6,340.8,339.6,10.1,10.6,NaN, NaN,13.1,249.2,281.3,1121127498,1121127497,1,1.4,001097,001097,324.3,33.588516,-120.764563,0.54,NaN,NaN,14.728, NaN,NaN,NaN, NaN, NaN
20050712,001847,1137033,33.588723,-120.764730,17.4,14.723,33.298,40.785,821.62,0.0,2.954,14.361,14.321, NaN,24.720,   NaN,14.39,1012.62,100.00,14.67,13.4,14.4,10.4,10.5,341.3,342.3,10.1,10.3,NaN, NaN,13.0,317.6,298.2,1121127528,1121127527,1,1.1,001127,001127,339.1,33.588580,-120.764700,0.68,NaN,NaN,14.727, NaN,NaN,NaN, NaN, NaN
20050712,001917,1137063,33.588853,-120.764746,17.3,14.723,33.295,40.782,811.89,0.0,2.898,14.361,14.321, NaN,24.717,   NaN,14.39,1012.47,100.00,14.68,354.1,358.7,10.7,11.0,333.2,338.1,10.2,10.5,NaN, NaN,13.9,300.8,326.4,1121127558,1121127558,1,1.2,001157,001158,346.6,33.588718,-120.764740,0.87,NaN,NaN,14.727, NaN,NaN,NaN, NaN, NaN
20050712,001947,1137093,33.588998,-120.764731,17.0,14.720,33.293,40.776,772.32,0.0,2.784,14.358,14.320, NaN,24.717,   NaN,14.40,1012.60,100.00,14.70,349.1,352.4,11.7,11.4,332.9,336.4,11.3,11.0,NaN, NaN,13.8,46.1,303.7,1121127588,1121127587,1,1.3,001187,001187,342.5,33.588856,-120.764701,0.92,NaN,NaN,14.724, NaN,NaN,NaN, NaN, NaN
20050712,002018,1137124,33.589156,-120.764721,17.3,14.715,33.298,40.778,787.39,0.0,2.690,14.354,14.318, NaN,24.721,   NaN,14.39,1012.60,100.00,14.69,357.6,0.5,11.7,11.3,333.9,336.8,11.2,10.9,NaN, NaN,12.7,286.7,313.4,1121127618,1121127617,1,1.3,001217,001217,325.1,33.589013,-120.764648,0.92,NaN,NaN,14.719, NaN,NaN,NaN, NaN, NaN
20050712,002048,1137154,33.589278,-120.764801,17.2,14.717,33.296,40.778,763.74,0.0,2.577,14.354,14.317, NaN,24.720,   NaN,14.40,1012.66,100.00,14.68,10.9,12.4,10.8,11.0,335.1,336.6,10.3,10.5,NaN, NaN,12.5,24.1,342.4,1121127649,1121127648,1,1.2,001248,001248,318.0,33.589146,-120.764720,1.14,NaN,NaN,14.721, NaN,NaN,NaN, NaN, NaN
20050712,002117,1137183,33.589353,-120.764956,17.1,14.716,33.296,40.775,771.18,0.0,2.520,14.352,14.316, NaN,24.719,   NaN,14.40,1012.80,100.00,14.69,18.8,19.5,10.8,11.5,337.9,338.5,10.4,11.0,NaN, NaN,13.1,262.9,289.7,1121127678,1121127677,1,1.1,001277,001277,316.3,33.589228,-120.764860,1.03,NaN,NaN,14.720, NaN,NaN,NaN, NaN, NaN
20050712,002147,1137213,33.589435,-120.765126,17.4,14.715,33.296,40.774,776.61,0.0,2.671,14.350,14.313, NaN,24.720,   NaN,14.40,1012.74,100.00,14.68,18.3,18.8,10.7,11.7,338.2,338.5,10.3,11.3,NaN, NaN,13.4,285.8,268.6,1121127708,1121127707,1,2.1,001307,001307,325.0,33.589311,-120.765053,1.24,NaN,NaN,14.719, NaN,NaN,NaN, NaN, NaN
20050712,002217,1137243,33.589590,-120.765250,17.3,14.710,33.299,40.773,801.54,0.0,2.709,14.348,14.311, NaN,24.723,   NaN,14.41,1012.63,100.00,14.71,10.1,11.4,10.8,11.2,337.0,339.2,10.4,10.6,NaN, NaN,14.0,16.5,4.1,1121127738,1121127737,1,1.0,001337,001337,337.6,33.589448,-120.765213,1.41,NaN,NaN,14.714, NaN,NaN,NaN, NaN, NaN
20050712,002247,1137273,33.589763,-120.765333,16.9,14.712,33.293,40.768,787.02,0.0,2.652,14.349,14.311, NaN,24.718,   NaN,14.41,1012.77,100.00,14.71,358.3,2.6,10.8,10.7,336.1,339.3,10.3,10.1,NaN, NaN,13.1,329.3,307.3,1121127768,1121127767,1,1.4,001367,001367,338.8,33.589620,-120.765291,1.41,NaN,NaN,14.716, NaN,NaN,NaN, NaN, NaN
20050712,002318,1137304,33.589991,-120.765385,17.3,14.715,33.292,40.771,767.16,0.0,2.690,14.349,14.312, NaN,24.717,   NaN,14.41,1012.67,100.00,14.71,358.7,359.8,9.8,10.1,335.3,336.6,9.0,9.4,NaN, NaN,13.3,354.9,346.0,1121127798,1121127798,1,1.8,001397,001398,333.8,33.589860,-120.765345,1.80,NaN,NaN,14.719, NaN,NaN,NaN, NaN, NaN
20050712,002347,1137333,33.590246,-120.765511,17.1,14.715,33.292,40.770,788.00,0.0,2.728,14.350,14.312, NaN,24.716,   NaN,14.41,1012.68,100.00,14.71,4.0,5.3,10.0,10.3,336.4,337.9,9.1,9.3,NaN, NaN,12.8,344.6,328.3,1121127828,1121127827,1,1.8,001427,001427,328.6,33.590111,-120.765453,1.89,NaN,NaN,14.719, NaN,NaN,NaN, NaN, NaN
20050712,002418,1137363,33.590421,-120.765600,17.2,14.712,33.292,40.768,805.27,0.0,2.784,14.351,14.313, NaN,24.717,   NaN,14.42,1012.63,100.00,14.71,8.0,9.9,10.8,10.8,336.1,338.2,10.0,10.0,NaN, NaN,13.8,329.4,327.1,1121127859,1121127858,1,0.7,001458,001458,325.8,33.590286,-120.765535,1.20,NaN,NaN,14.716, NaN,NaN,NaN, NaN, NaN
20050712,002448,1137393,33.590526,-120.765663,16.9,14.715,33.287,40.765,839.18,0.0,2.671,14.348,14.312, NaN,24.713,   NaN,14.42,1012.79,100.00,14.71,10.2,12.5,10.8,10.9,335.0,337.4,10.3,10.3,NaN, NaN,13.5,59.8,29.2,1121127888,1121127888,1,1.0,001488,001488,325.1,33.590391,-120.765598,0.84,NaN,NaN,14.719, NaN,NaN,NaN, NaN, NaN
20050712,002517,1137423,33.590613,-120.765753,16.9,14.714,33.292,40.769,837.61,0.0,2.615,14.345,14.310, NaN,24.717,   NaN,14.43,1012.78,100.00,14.72,9.1,11.0,9.7,10.2,335.0,337.0,9.3,9.8,NaN, NaN,13.2,302.1,327.4,1121127918,1121127917,1,0.6,001517,001517,329.5,33.590470,-120.765695,0.87,NaN,NaN,14.718, NaN,NaN,NaN, NaN, NaN
20050712,002547,1137452,33.590730,-120.765828,17.3,14.707,33.298,40.770,830.88,0.0,2.652,14.344,14.310, NaN,24.723,   NaN,14.43,1012.59,100.00,14.72,5.6,8.5,10.6,11.3,336.0,339.0,10.1,10.9,NaN, NaN,13.2,6.1,339.4,1121127948,1121127947,1,1.3,001547,001547,332.8,33.590591,-120.765783,0.89,NaN,NaN,14.711, NaN,NaN,NaN, NaN, NaN
20050712,002618,1137484,33.590886,-120.765918,17.0,14.705,33.291,40.760,812.92,0.0,2.690,14.343,14.304, NaN,24.718,   NaN,14.44,1012.70,100.00,14.72,3.1,6.2,11.0,10.9,336.1,339.4,10.5,10.3,NaN, NaN,13.7,14.9,334.7,1121127979,1121127978,1,1.3,001578,001578,333.5,33.590750,-120.765880,1.28,NaN,NaN,14.709, NaN,NaN,NaN, NaN, NaN
20050712,002648,1137514,33.591031,-120.765955,17.1,14.702,33.294,40.760,830.07,0.0,2.709,14.340,14.303, NaN,24.721,   NaN,14.43,1012.64,100.00,14.74,358.0,3.6,10.5,10.5,331.4,337.2,10.0,9.9,NaN, NaN,12.9,31.2,23.4,1121128009,1121128008,1,1.3,001608,001608,334.6,33.590893,-120.765915,1.01,NaN,NaN,14.706, NaN,NaN,NaN, NaN, NaN
20050712,002717,1137543,33.591121,-120.766001,17.1,14.700,33.291,40.756,839.30,0.0,2.747,14.337,14.300, NaN,24.719,   NaN,14.43,1012.61,100.00,14.71,358.4,2.5,9.8,10.2,331.2,335.5,9.4,9.7,NaN, NaN,12.8,257.8,303.3,1121128038,1121128037,1,0.9,001637,001637,331.8,33.590998,-120.765950,0.85,NaN,NaN,14.704, NaN,NaN,NaN, NaN, NaN
20050712,002748,1137573,33.591218,-120.766015,17.1,14.700,33.282,40.745,847.13,0.0,2.652,14.337,14.299, NaN,24.713,   NaN,14.44,1012.61,100.00,14.73,4.8,6.4,10.3,10.4,335.1,336.8,9.9,10.1,NaN, NaN,13.0,282.7,357.2,1121128069,1121128068,1,1.0,001668,001668,327.8,33.591088,-120.765958,0.58,NaN,NaN,14.704, NaN,NaN,NaN, NaN, NaN
20050712,002818,1137604,33.591253,-120.766070,16.8,14.702,33.286,40.752,867.06,0.0,2.671,14.336,14.294, NaN,24.715,   NaN,14.43,1012.62,100.00,14.74,9.1,10.5,10.6,10.7,337.3,338.8,10.3,10.4,NaN, NaN,16.6,53.4,353.8,1121128098,1121128097,1,0.9,001697,001697,328.5,33.591141,-120.766011,0.63,NaN,NaN,14.706, NaN,NaN,NaN, NaN, NaN
20050712,002848,1137634,33.591313,-120.766118,17.2,14.700,33.287,40.751,863.15,0.0,2.558,14.334,14.295, NaN,24.716,   NaN,14.44,1012.66,100.00,14.71,15.1,9.8,10.1,10.1,343.0,338.3,10.0,9.9,NaN, NaN,16.5,254.9,275.4,1121128128,1121128128,1,0.4,001727,001728,329.5,33.591200,-120.766065,0.57,NaN,NaN,14.704, NaN,NaN,NaN, NaN, NaN
20050712,002918,1137664,33.591381,-120.766141,17.0,14.692,33.293,40.750,899.42,0.0,2.747,14.331,14.293, NaN,24.723,   NaN,14.44,1012.69,100.00,14.75,1.2,6.5,10.5,10.4,331.5,336.9,10.2,10.1,NaN, NaN,16.3,45.8,19.2,1121128159,1121128158,1,0.7,001758,001758,331.8,33.591266,-120.766100,0.58,NaN,NaN,14.696, NaN,NaN,NaN, NaN, NaN
20050712,002948,1137693,33.591450,-120.766190,17.3,14.689,33.331,40.789,912.86,0.0,2.766,14.331,14.290, NaN,24.753,   NaN,14.45,1012.45,100.00,14.75,2.4,7.3,11.4,11.5,333.2,338.3,11.1,11.2,NaN, NaN,16.3,267.1,289.6,1121128189,1121128188,1,0.9,001788,001788,329.6,33.591338,-120.766138,0.52,NaN,NaN,14.693, NaN,NaN,NaN, NaN, NaN
20050712,003018,1137723,33.591503,-120.766201,17.1,14.688,33.321,40.776,934.09,0.0,2.671,14.329,14.290, NaN,24.745,   NaN,14.46,1012.52,100.00,14.76,6.4,9.3,11.5,11.5,335.9,338.9,11.3,11.3,NaN, NaN,15.5,6.3,343.0,1121128218,1121128218,1,0.5,001818,001818,328.0,33.591388,-120.766145,0.45,NaN,NaN,14.692, NaN,NaN,NaN, NaN, NaN
20050712,003048,1137754,33.591578,-120.766233,17.0,14.689,33.324,40.781,917.87,0.0,2.747,14.326,14.287, NaN,24.747,   NaN,14.47,1012.69,100.00,14.77,7.6,10.1,10.4,10.6,335.7,338.2,10.2,10.4,NaN, NaN,16.3,18.6,1.0,1121128248,1121128248,1,0.4,001848,001848,328.3,33.591465,-120.766181,0.83,NaN,NaN,14.693, NaN,NaN,NaN, NaN, NaN
20050712,003118,1137784,33.591691,-120.766321,17.0,14.695,33.319,40.782,876.38,0.0,2.709,14.325,14.287, NaN,24.742,   NaN,14.47,1012.50,100.00,14.76,7.3,8.3,10.1,10.6,335.5,336.4,9.6,10.2,NaN, NaN,15.4,222.4,299.1,1121128279,1121128278,1,1.4,001878,001878,328.8,33.591581,-120.766265,1.11,NaN,NaN,14.699, NaN,NaN,NaN, NaN, NaN
20050712,003147,1137812,33.591791,-120.766351,17.2,14.695,33.326,40.789,905.43,0.0,2.709,14.327,14.288, NaN,24.747,   NaN,14.47,1012.47,100.00,14.77,6.0,5.3,10.0,10.8,335.0,334.3,9.5,10.4,NaN, NaN,15.9,290.3,319.4,1121128308,1121128307,1,0.9,001907,001907,330.5,33.591670,-120.766306,0.74,NaN,NaN,14.699, NaN,NaN,NaN, NaN, NaN
20050712,003218,1137844,33.591908,-120.766423,17.2,14.695,33.323,40.786,926.60,0.0,2.728,14.326,14.287, NaN,24.745,   NaN,14.47,1012.50,100.00,14.78,1.3,5.7,11.2,12.0,331.0,335.6,10.8,11.6,NaN, NaN,16.2,50.4,352.2,1121128339,1121128338,1,1.1,001938,001938,329.1,33.591791,-120.766373,1.08,NaN,NaN,14.699, NaN,NaN,NaN, NaN, NaN
20050712,003248,1137873,33.592025,-120.766485,16.9,14.690,33.326,40.785,885.41,0.0,2.671,14.327,14.287, NaN,24.749,   NaN,14.47,1012.55,100.00,14.75,4.6,8.8,11.5,11.8,334.0,338.5,11.0,11.3,NaN, NaN,16.2,267.4,328.2,1121128369,1121128368,1,0.9,001968,001968,329.1,33.591915,-120.766440,1.08,NaN,NaN,14.694, NaN,NaN,NaN, NaN, NaN
20050712,003318,1137903,33.592123,-120.766561,17.3,14.687,33.326,40.782,871.48,0.0,2.558,14.328,14.289, NaN,24.749,   NaN,14.48,1012.53,100.00,14.78,6.3,9.6,11.4,11.2,335.7,339.1,11.0,10.8,NaN, NaN,15.8,303.0,333.0,1121128399,1121128398,1,0.8,001998,001998,328.9,33.592005,-120.766516,1.03,NaN,NaN,14.691, NaN,NaN,NaN, NaN, NaN
20050712,003348,1137934,33.592235,-120.766636,17.3,14.691,33.322,40.781,844.11,0.0,2.577,14.330,14.291, NaN,24.745,   NaN,14.48,1012.40,100.00,14.77,4.8,7.5,11.5,11.1,334.4,337.2,11.0,10.7,NaN, NaN,15.8,294.0,345.2,1121128429,1121128428,1,0.9,002028,002028,329.8,33.592111,-120.766586,0.92,NaN,NaN,14.695, NaN,NaN,NaN, NaN, NaN
20050712,003418,1137964,33.592336,-120.766665,16.9,14.697,33.318,40.783,840.90,0.0,2.520,14.330,14.293, NaN,24.741,   NaN,14.49,1012.58,100.00,14.78,4.7,6.1,11.1,11.3,335.6,337.0,10.7,10.8,NaN, NaN,15.5,48.1,40.4,1121128459,1121128458,1,1.2,002058,002058,330.4,33.592210,-120.766631,1.02,NaN,NaN,14.701, NaN,NaN,NaN, NaN, NaN
20050712,003448,1137994,33.592436,-120.766735,17.2,14.700,33.320,40.788,825.94,0.0,2.652,14.332,14.294, NaN,24.742,   NaN,14.49,1012.47,100.00,14.77,1.8,5.2,10.5,11.1,332.1,335.5,10.1,10.7,NaN, NaN,16.9,30.1,22.5,1121128489,1121128488,1,1.0,002088,002088,328.5,33.592315,-120.766686,1.03,NaN,NaN,14.704, NaN,NaN,NaN, NaN, NaN
20050712,003518,1138024,33.592541,-120.766798,17.2,14.697,33.334,40.800,811.40,0.0,2.615,14.332,14.294, NaN,24.753,   NaN,14.49,1012.58,100.00,14.78,2.5,5.2,10.0,10.5,331.4,334.2,9.5,10.1,NaN, NaN,16.1,296.7,339.3,1121128519,1121128518,1,1.1,002118,002118,329.5,33.592420,-120.766755,0.93,NaN,NaN,14.701, NaN,NaN,NaN, NaN, NaN
20050712,003548,1138053,33.592646,-120.766866,17.3,14.695,33.337,40.801,847.61,0.0,2.671,14.330,14.292, NaN,24.756,   NaN,14.49,1012.45,100.00,14.78,2.9,5.6,9.8,10.2,331.7,334.7,9.3,9.8,NaN, NaN,16.7,355.3,329.9,1121128549,1121128548,1,0.9,002148,002148,328.8,33.592530,-120.766813,1.04,NaN,NaN,14.699, NaN,NaN,NaN, NaN, NaN
20050712,003618,1138083,33.592753,-120.766910,17.0,14.693,33.338,40.800,820.26,0.0,2.709,14.329,14.291, NaN,24.757,   NaN,14.48,1012.57,100.00,14.78,3.3,7.3,10.0,10.2,331.5,335.8,9.6,9.7,NaN, NaN,15.2,272.9,312.4,1121128578,1121128578,1,0.8,002178,002178,329.3,33.592631,-120.766871,0.85,NaN,NaN,14.697, NaN,NaN,NaN, NaN, NaN